ONEWEB-0164

Last updated on April 25, 2021, 12:02 a.m. UTC

1 48063U 21025X   21114.58336806 -.01098477  00000-0 -53728-1 0  9993
2 48063  87.4209 339.3758 0011429 147.3421 257.9625 15.21297870  1762
UTC
Height (km)
Latitude
Longitude
Inclination
Orbital Period
UTC large
Height (km)
Speed (km/s)
/
Latitude / Longitude
Inclination (degrees)
Orbital Period (minutes)
Azimuth
Elevation
Range (km)
Doppler Factor
iOS Compass Heading
iOS Angle

Next 30 passes for location: Hong Kong

Rise time Rise Azimuth (degrees) Set time Set Azimuth (degrees) Duration Max altitude (degrees)

No matching passes for this satellites